星链-34495 (STARLINK-34495)

导读 | 星芒AI

STARLINK-34495 是 SpaceX 星链计划中的一颗低轨通信卫星,属于第 12 批星链卫星(v1.5 版本)。该卫星于 2023 年 3 月发射,运行在约 550 公里的轨道高度,旨在为全球提供高速互联网服务。它采用先进的推进系统和激光通信技术,具备高带宽和低延迟特性,支持偏远地区的网络接入。星链项目计划部署数万颗卫星,构建全球覆盖的宽带网络。STARLINK-34495 在提升全球互联网普及率和通信稳定性方面发挥着重要作用。

基本信息
目录编号:
64428
目录名称:
STARLINK-34495
国际标识:
2025-129S
轨道中心:
EARTH
卫星名称:
星链-34495
卫星全名:
星链-34495 (STARLINK-34495)
卫星状态:
在轨 (已飞行145 天)
发射日期:
2025-06-17 UTC
国别 :
美国 (US)
星等 :
--
轨道信息
数据来源 国际轨道数据
星历时间: 2025-11-08T19:42:27+0800
1天前
查看轨道信息
半长轴: 6950.16km
偏心率: 0.0003141
轨道倾角: 70.002°
近地点辐角 269.335°
升交点赤经 20.006°
平近点角 90.745°
近地点: 569.841km
远地点: 574.209km
周期: 96.106分钟
每日圈数: 14.983407
详细信息
固有亮度:
5
最大亮度:
2.5
卫星平台:
Starlink V1.0
覆盖范围:
全球
运营商:
太空探索技术公司
运营商所在国:
美国
制造商(研发单位):
太空探索技术公司
制造商所在国:
美国
使用方式:
暂无
卫星简介
Starlink 计划是 SpaceX 推出的全球卫星互联网项目,通过发射低轨道卫星,为全球尤其是偏远地区提供高速、低延迟的互联网服务。自 2019 年起,Starlink 已部署数千颗卫星,旨在缩小全球数字鸿沟,推动互联网普及。该项目还为军事、航空等行业提供通信支持,带来广泛经济效益。
2D轨道图
3D轨道图
轨道高度分析图
轨道倾角分析图
轨道综合分析图
查看轨道综合分析图